Weather History for Milan, Italy

Change the Weather History Date:

Saturday, June 22, 2013

  Actual Average Record
Temperature  
Mean Temperature 70 °F -  
Max Temperature 80 °F 82 °F 91 °F (2002)
Min Temperature 59 °F 59 °F 53 °F (2001)
Cooling Degree Days 4    
Growing Degree Days 20 (Base 50)    
Moisture  
Dew Point 57 °F    
Average Humidity 64    
Maximum Humidity 100    
Minimum Humidity 42    
Precipitation  
Precipitation 0.00 in 0.10 in - ()
Sea Level Pressure  
Sea Level Pressure 30.00 in    
Wind  
Wind Speed 4 mph ()    
Max Wind Speed 10 mph    
Max Gust Speed -    
Visibility 6.2 miles    
Events Thunderstorm    
Averages and records for this station are not official NWS values.
T = Trace of Precipitation, MM = Missing Value Source: Averaged Metar Reports

Daily Weather History Graph

Daily Weather History Graph

Search for Another Location

Airport:

Trip Planner

Search our weather history database for the weather conditions in past years. The results will help you decide how hot, cold, wet, or windy it might be!

Date:

Astronomy

Jun. 22, 2013 Rise Set
Actual Time 5:36 AM CEST 9:18 PM CEST
Civil Twilight 4:57 AM CEST 9:56 PM CEST
Nautical Twilight 4:06 AM CEST 10:47 PM CEST
Astronomical Twilight 2:56 AM CEST 11:57 PM CEST
Moon 8:12 PM CEST (6/22) 4:35 AM CEST (6/22)
Length of Visible Light 16h 58m
Length of Day
15h 42m
Waxing Gibbous, 98% of the Moon is Illuminated
Jun 22
Waxing Gibbous
Jun 23
Full
Jun 30
Last Quarter
Jul 8
New
Jul 16
First Quarter

Hourly Weather History & Observations

Time (CEST) Temp. Heat Index Dew Point Humidity Pressure Visibility Wind Dir Wind Speed Gust Speed Precip Events Conditions
12:20 AM 64.4 °F - 51.8 °F 64% 30.04 in 6.2 mi SSW 4.6 mph - N/A   Scattered Clouds
12:50 AM 64.4 °F - 51.8 °F 64% 30.04 in 6.2 mi Variable 1.2 mph - N/A   Scattered Clouds
1:20 AM 62.6 °F - 53.6 °F 72% 30.04 in 6.2 mi Variable 1.2 mph - N/A   Scattered Clouds
1:50 AM 62.6 °F - 55.4 °F 77% 30.04 in 6.2 mi Variable 2.3 mph - N/A   Scattered Clouds
2:20 AM 62.6 °F - 57.2 °F 82% 30.01 in 6.2 mi SW 3.5 mph - N/A   Mostly Cloudy
2:50 AM 62.6 °F - 55.4 °F 77% 30.01 in 6.2 mi Calm Calm - N/A   Mostly Cloudy
3:20 AM 62.6 °F - 57.2 °F 82% 30.01 in 6.2 mi Variable 1.2 mph - N/A   Mostly Cloudy
3:50 AM 62.6 °F - 59.0 °F 88% 30.01 in 6.2 mi SE 2.3 mph - N/A   Mostly Cloudy
4:20 AM 60.8 °F - 59.0 °F 94% 30.01 in 6.2 mi NE 2.3 mph - N/A   Mostly Cloudy
4:50 AM 60.8 °F - 59.0 °F 94% 30.01 in 6.2 mi Variable 2.3 mph - N/A   Mostly Cloudy
5:20 AM 60.8 °F - 59.0 °F 94% 30.01 in 6.2 mi Variable 1.2 mph - N/A   Scattered Clouds
5:50 AM 60.8 °F - 59.0 °F 94% 30.01 in 6.2 mi Calm Calm - N/A   Mostly Cloudy
6:20 AM 59.0 °F - 59.0 °F 100% 30.01 in 6.2 mi Variable 2.3 mph - N/A   Scattered Clouds
6:50 AM 60.8 °F - 60.8 °F 100% 30.01 in 6.2 mi NNE 2.3 mph - N/A   Scattered Clouds
7:20 AM 64.4 °F - 59.0 °F 83% 30.01 in 6.2 mi North 3.5 mph - N/A   Scattered Clouds
7:50 AM 66.2 °F - 59.0 °F 78% 30.01 in 6.2 mi Variable 2.3 mph - N/A   Scattered Clouds
8:20 AM 68.0 °F - 59.0 °F 73% 30.01 in 6.2 mi Variable 1.2 mph - N/A   Scattered Clouds
8:50 AM 69.8 °F - 59.0 °F 68% 30.04 in 6.2 mi Variable 2.3 mph - N/A Thunderstorm Scattered Clouds
9:20 AM 71.6 °F - 59.0 °F 64% 30.04 in 6.2 mi Variable 1.2 mph - N/A Thunderstorm Scattered Clouds
9:50 AM 73.4 °F - 59.0 °F 61% 30.01 in 6.2 mi NE 5.8 mph - N/A   Scattered Clouds
10:20 AM 73.4 °F - 57.2 °F 57% 30.01 in 6.2 mi Variable 2.3 mph - N/A   Scattered Clouds
10:50 AM 69.8 °F - 57.2 °F 64% 30.01 in 6.2 mi WNW 9.2 mph - N/A   Mostly Cloudy
11:20 AM 73.4 °F - 55.4 °F 53% 30.04 in 6.2 mi NW 10.4 mph - N/A   Mostly Cloudy
11:50 AM 75.2 °F - 55.4 °F 50% 30.01 in 6.2 mi NNW 6.9 mph - N/A   Scattered Clouds
12:20 PM 75.2 °F - 55.4 °F 50% 30.01 in 6.2 mi West 8.1 mph - N/A   Scattered Clouds
12:50 PM 77.0 °F - 57.2 °F 50% 30.01 in 6.2 mi WNW 8.1 mph - N/A   Partly Cloudy
1:20 PM 77.0 °F - 57.2 °F 50% 30.01 in - SW 6.9 mph - N/A   Clear
1:50 PM 78.8 °F - 57.2 °F 47% 30.01 in 6.2 mi WSW 6.9 mph - N/A   Partly Cloudy
2:20 PM 80.6 °F 80.8 °F 57.2 °F 45% 29.98 in 6.2 mi WSW 6.9 mph - N/A   Scattered Clouds
2:50 PM 80.6 °F 80.8 °F 57.2 °F 45% 29.98 in 6.2 mi WSW 5.8 mph - N/A   Scattered Clouds
3:20 PM 80.6 °F 80.8 °F 57.2 °F 45% 29.98 in 6.2 mi SW 8.1 mph - N/A   Scattered Clouds
3:50 PM 80.6 °F 80.5 °F 55.4 °F 42% 29.98 in 6.2 mi West 6.9 mph - N/A   Scattered Clouds
4:20 PM 80.6 °F 80.5 °F 55.4 °F 42% 29.98 in 6.2 mi SW 6.9 mph - N/A   Scattered Clouds
4:50 PM 80.6 °F 80.8 °F 57.2 °F 45% 29.98 in 6.2 mi SW 8.1 mph - N/A   Scattered Clouds
5:20 PM 80.6 °F 80.5 °F 55.4 °F 42% 29.95 in 6.2 mi SW 8.1 mph - N/A   Scattered Clouds
5:50 PM 80.6 °F 80.5 °F 55.4 °F 42% 29.95 in 6.2 mi SW 9.2 mph - N/A   Partly Cloudy
6:20 PM 80.6 °F 80.5 °F 55.4 °F 42% 29.95 in 6.2 mi SSW 8.1 mph - N/A   Partly Cloudy
6:50 PM 80.6 °F 80.5 °F 55.4 °F 42% 29.95 in 6.2 mi SW 5.8 mph - N/A   Partly Cloudy
7:20 PM 80.6 °F 80.5 °F 55.4 °F 42% 29.95 in 6.2 mi SSW 4.6 mph - N/A   Partly Cloudy
7:50 PM 78.8 °F - 53.6 °F 42% 29.95 in - SSW 8.1 mph - N/A   Clear
8:20 PM 77.0 °F - 55.4 °F 47% 29.95 in - SSW 5.8 mph - N/A   Clear
8:50 PM 75.2 °F - 55.4 °F 50% 29.95 in - SSW 5.8 mph - N/A   Clear
9:20 PM 73.4 °F - 57.2 °F 57% 29.95 in - SSW 10.4 mph - N/A   Clear
9:50 PM 71.6 °F - 57.2 °F 60% 29.98 in - South 10.4 mph - N/A   Clear
10:20 PM 69.8 °F - 57.2 °F 64% 29.98 in - South 5.8 mph - N/A   Clear
10:50 PM 68.0 °F - 57.2 °F 68% 29.98 in - South 5.8 mph - N/A   Clear
11:20 PM 66.2 °F - 59.0 °F 78% 30.01 in - South 5.8 mph - N/A   Clear
11:50 PM 66.2 °F - 59.0 °F 78% 30.01 in - South 3.5 mph - N/A   Clear